Location: Radomski Observatory
(40.2854°N, 79.5145°W)
Time: 09:39:03
(UTC-05:00)

Cosmos 1072 Rocket - Visible Passes

Search period start: 23 January 2017 00:00
Search period end: 02 February 2017 00:00
Orbit: 948 x 1009 km, 82.9° (Epoch: 22 January)

Date Brightness Start Highest point End Pass type
(mag) Time Alt. Az. Time Alt. Az. Time Alt. Az.
23 Jan 4.5 05:21:39 10° S 05:27:48 81° E 05:33:56 10° N visible
23 Jan 7.2 18:05:29 10° NW 18:09:23 18° W 18:13:18 10° WSW visible
24 Jan 6.7 04:04:54 10° SE 04:09:15 21° E 04:13:36 10° NE visible
24 Jan 4.5 05:48:11 10° SSW 05:54:11 55° W 06:00:11 10° N visible
25 Jan 5.7 04:29:41 10° SSE 04:35:17 38° E 04:40:52 10° NNE visible
25 Jan 5.1 06:15:28 10° SW 06:20:46 30° WNW 06:26:04 10° NNW visible
26 Jan 4.6 04:55:22 10° S 05:01:28 73° E 05:07:34 10° N visible
26 Jan 5.8 06:43:53 10° WSW 06:47:33 16° WNW 06:51:14 10° NNW visible
27 Jan 6.7 03:39:00 10° ESE 03:43:00 18° E 03:47:00 10° NE visible
27 Jan 4.3 05:21:47 10° SSW 05:27:50 61° W 05:33:54 10° N visible
28 Jan 5.8 04:07:32 31° ESE 04:09:00 35° E 04:14:25 10° NNE visible
28 Jan 5.0 05:52:31 28° WSW 05:54:23 33° WNW 05:59:51 10° NNW visible
29 Jan 4.8 04:36:01 58° NE 04:36:01 58° NE 04:41:12 10° NNE visible
29 Jan 5.7 06:20:51 18° WNW 06:21:08 18° WNW 06:25:11 10° NNW visible
30 Jan 7.0 03:18:39 14° ENE 03:18:39 14° ENE 03:20:21 10° NE visible
30 Jan 5.0 05:03:28 44° NNW 05:03:28 44° NNW 05:07:35 10° N visible
31 Jan 6.5 03:45:44 20° NE 03:45:44 20° NE 03:47:57 10° NNE visible
31 Jan 5.5 05:30:31 26° NNW 05:30:31 26° NNW 05:33:36 10° N visible
01 Feb 6.2 04:12:36 23° NNE 04:12:36 23° NNE 04:14:50 10° NNE visible
01 Feb 6.0 05:57:22 15° NW 05:57:22 15° NW 05:59:06 10° NNW visible
